(35277) = 1996 RV27 = 2001 BJ1

Discovered at La Silla on 1996-09-10 by Uppsala-DLR Trojan Survey.

Orbit

Orbit type: Jupiter Trojan

Note: WebGL enabled browser required.

epoch2023-09-13.0
epoch JD2460200.5
perihelion date2014-07-03.08142
perihelion JD2456841.58142
argument of perihelion (°)182.69928
ascending node (°)345.72351
inclination (°)20.01936
eccentricity0.0358038
perihelion distance (AU)5.0479248
Tisserand w.r.t. Jupiter2.9
ΔV w.r.t. Earth (km/sec)13.8
semimajor axis (AU)5.2353708
mean anomaly (°)276.36443
mean daily motion (°/day)0.08227780
aphelion distance (AU)5.423
period (years)11.98
P-vector [x]-0.97895344
P-vector [y]0.19307097
P-vector [z]0.06613451
Q-vector [x]-0.18580442
Q-vector [y]-0.70912767
Q-vector [z]-0.68015783
absolute magnitude11.96
phase slope0.15
uncertainty0
referenceMPEC 2024-C06
observations used1177
oppositions22
arc length (days)10000
first opposition used1996
last opposition used2024
residual rms (arc-secs)0.72
perturbers coarse indicatorM-v
perturbers precise indicator003Ek
first observation date used1996-09-11.0
last observation date used2024-01-28.0
computer nameMPCLINUX
JD of orbit computation2456937.430142
perihelion JD uncertainty (days)1.0087E-03
argument of perihelion uncertainty (°)8.7318E-05
ascending node uncertainty (°)1.4653E-05
inclination uncertainty (°)7.9410E-06
eccentricity uncertainty 8.0664E-08
perihelion distance uncertainty (AU)4.4869E-07
Minimum Orbit Intersection Distances (in AU)
for orbit epoch: 2460200.5, reference: E2024-BE9
Mercury4.66112
Venus4.33023
Earth4.0536
Mars3.38407
Jupiter0.36321
Saturn4.20733
Uranus13.398
Neptune24.5064

Observations

1205 total observations over interval: 1996 09 10.22917 – 2024 01 28.432369
These data are available for download (format description).

Date (UT) J2000 RA J2000 Dec Magn Location Ref
1996 09 10.22917 23 35 42.71 +01 07 17.3   809 – European Southern Observatory, La Silla MPC 29559
1996 09 11.24881 23 35 09.82 +01 05 55.8   809 – European Southern Observatory, La Silla MPC 29559
1996 09 11.25177 23 35 09.72 +01 05 55.7   809 – European Southern Observatory, La Silla MPC 29559
1996 09 13.19583 23 34 07.14 +01 03 19.4   809 – European Southern Observatory, La Silla MPC 29559
1996 09 13.31852 23 34 03.06 +01 03 08.4   809 – European Southern Observatory, La Silla MPC 29559
1996 09 13.32068 23 34 02.99 +01 03 08.2   809 – European Southern Observatory, La Silla MPC 29559
1996 09 22.10645 23 29 20.30 +00 50 33.4   809 – European Southern Observatory, La Silla MPC 29559
1996 09 22.10856 23 29 20.24 +00 50 33.3   809 – European Southern Observatory, La Silla MPC 29559
1998 12 12.12154 02 46 53.10 +39 56 57.5 19.2   704 – Lincoln Laboratory ETS, New Mexico MPS 26324
1998 12 12.14448 02 46 52.70 +39 56 53.0 19.2   704 – Lincoln Laboratory ETS, New Mexico MPS 26324
1998 12 12.16747 02 46 51.92 +39 56 48.5 19.5   704 – Lincoln Laboratory ETS, New Mexico MPS 26324
1998 12 12.19039 02 46 51.33 +39 56 44.0 20.0   704 – Lincoln Laboratory ETS, New Mexico MPS 26324
1998 12 12.21359 02 46 50.35 +39 56 38.6 20.0   704 – Lincoln Laboratory ETS, New Mexico MPS 26324
1999 12 13.27932 06 03 44.79 +47 18 03.9 18.3   704 – Lincoln Laboratory ETS, New Mexico MPS 26324
1999 12 13.29395 06 03 44.07 +47 18 04.8 18.6   704 – Lincoln Laboratory ETS, New Mexico MPS 26324
1999 12 13.30851 06 03 43.43 +47 18 04.9 18.7   704 – Lincoln Laboratory ETS, New Mexico MPS 26324
1999 12 13.32313 06 03 42.73 +47 18 05.5 18.9   704 – Lincoln Laboratory ETS, New Mexico MPS 26324
1999 12 13.33772 06 03 42.06 +47 18 05.9 18.8   704 – Lincoln Laboratory ETS, New Mexico MPS 26324
1999 12 30.23678 05 50 37.10 +47 09 02.2 19.7   704 – Lincoln Laboratory ETS, New Mexico MPS 26324
1999 12 30.25140 05 50 36.51 +47 09 01.7 19.9   704 – Lincoln Laboratory ETS, New Mexico MPS 26324
1999 12 30.26594 05 50 35.73 +47 08 59.6 19.5   704 – Lincoln Laboratory ETS, New Mexico MPS 26324
1999 12 30.28041 05 50 35.05 +47 08 58.3 19.4   704 – Lincoln Laboratory ETS, New Mexico MPS 26324
2000 11 26.36639 09 09 24.81 +33 28 38.2 19.0 R 699 – Lowell Observatory-LONEOS MPS 26803
2000 11 26.38995 09 09 24.93 +33 28 40.3   699 – Lowell Observatory-LONEOS MPS 26803
2000 11 26.41347 09 09 24.92 +33 28 43.1   699 – Lowell Observatory-LONEOS MPS 26803
2000 11 26.43701 09 09 24.87 +33 28 44.7   699 – Lowell Observatory-LONEOS MPS 26803
2000 12 19.39479 09 05 55.56 +34 15 10.5 19.4   704 – Lincoln Laboratory ETS, New Mexico MPS 25640
2000 12 19.40992 09 05 55.28 +34 15 13.6 18.9   704 – Lincoln Laboratory ETS, New Mexico MPS 25640
2000 12 19.42493 09 05 54.97 +34 15 15.3 19.4   704 – Lincoln Laboratory ETS, New Mexico MPS 25640
2000 12 19.43996 09 05 54.61 +34 15 17.7 19.5   704 – Lincoln Laboratory ETS, New Mexico MPS 25640
2001 01 17.33076 08 50 52.44 +35 11 59.6 18.7   704 – Lincoln Laboratory ETS, New Mexico MPS 25640
2001 01 17.34615 08 50 51.80 +35 12 01.3 19.0   704 – Lincoln Laboratory ETS, New Mexico MPS 25640
2001 01 17.34925 08 50 51.64 +35 12 01.5 19.1   704 – Lincoln Laboratory ETS, New Mexico MPS 25640
2001 01 17.36163 08 50 51.14 +35 12 02.4 19.1   704 – Lincoln Laboratory ETS, New Mexico MPS 25640
2001 01 17.36491 08 50 50.98 +35 12 01.5 19.0   704 – Lincoln Laboratory ETS, New Mexico MPS 25640
2001 01 17.37849 08 50 50.41 +35 12 03.7 19.3   704 – Lincoln Laboratory ETS, New Mexico MPS 25640
2001 01 17.38165 08 50 50.33 +35 12 04.1 18.9   704 – Lincoln Laboratory ETS, New Mexico MPS 25640
2001 01 17.39417 08 50 49.80 +35 12 04.8 19.1   704 – Lincoln Laboratory ETS, New Mexico MPS 25640
2001 01 17.39739 08 50 49.61 +35 12 05.2 19.8   704 – Lincoln Laboratory ETS, New Mexico MPS 25640
2001 01 18.34573 08 50 12.06 +35 13 16.0 18.9   704 – Lincoln Laboratory ETS, New Mexico MPS 25640
2001 01 18.35241 08 50 11.84 +35 13 16.9 18.6   704 – Lincoln Laboratory ETS, New Mexico MPS 25640
2001 01 18.36231 08 50 11.41 +35 13 17.5 19.2   704 – Lincoln Laboratory ETS, New Mexico MPS 25640
2001 01 18.36921 08 50 11.28 +35 13 17.0 20.1   704 – Lincoln Laboratory ETS, New Mexico MPS 25640
2001 01 18.37893 08 50 10.69 +35 13 17.8 19.2   704 – Lincoln Laboratory ETS, New Mexico MPS 25640
2001 01 18.38600 08 50 10.47 +35 13 18.9 19.6   704 – Lincoln Laboratory ETS, New Mexico MPS 25640
2001 01 18.39932 08 50 09.90 +35 13 20.1 19.0   704 – Lincoln Laboratory ETS, New Mexico MPS 25640
2001 01 18.40646 08 50 09.56 +35 13 20.1 19.6   704 – Lincoln Laboratory ETS, New Mexico MPS 25640
2001 01 18.41719 08 50 09.19 +35 13 21.3 19.6   704 – Lincoln Laboratory ETS, New Mexico MPS 25640
2001 01 18.42401 08 50 08.82 +35 13 21.5 19.1   704 – Lincoln Laboratory ETS, New Mexico MPS 25640
2001 02 13.25238 08 32 47.11 +35 16 02.6 18.5   704 – Lincoln Laboratory ETS, New Mexico MPS 26803
2001 02 13.25255 08 32 46.98 +35 16 02.6 18.2   704 – Lincoln Laboratory ETS, New Mexico MPS 26803
2001 02 13.26668 08 32 46.49 +35 16 02.2 19.5   704 – Lincoln Laboratory ETS, New Mexico MPS 26803
2001 02 13.26677 08 32 46.54 +35 16 02.6 18.6   704 – Lincoln Laboratory ETS, New Mexico MPS 26803
2001 02 13.28093 08 32 45.89 +35 16 01.8 19.6   704 – Lincoln Laboratory ETS, New Mexico MPS 26803
2001 02 13.29515 08 32 45.47 +35 16 00.4 19.3   704 – Lincoln Laboratory ETS, New Mexico MPS 26803
2001 02 13.29524 08 32 45.45 +35 15 59.1 18.6   704 – Lincoln Laboratory ETS, New Mexico MPS 26803
2001 02 13.31085 08 32 44.74 +35 15 59.2 19.4   704 – Lincoln Laboratory ETS, New Mexico MPS 26803
2001 02 13.31094 08 32 44.82 +35 15 58.3 19.1   704 – Lincoln Laboratory ETS, New Mexico MPS 26803
2001 02 16.15966 08 31 00.81 +35 12 29.4 18.6 R 699 – Lowell Observatory-LONEOS MPS 27333
2001 02 16.17538 08 31 00.36 +35 12 27.7   699 – Lowell Observatory-LONEOS MPS 27333
2001 02 16.19110 08 30 59.73 +35 12 27.0   699 – Lowell Observatory-LONEOS MPS 27333
2001 02 16.20680 08 30 59.13 +35 12 25.9   699 – Lowell Observatory-LONEOS MPS 27333
2001 02 16.23438 08 30 58.10 +35 12 22.8 18.6   704 – Lincoln Laboratory ETS, New Mexico MPS 26803
2001 02 16.24860 08 30 57.67 +35 12 21.9 18.6   704 – Lincoln Laboratory ETS, New Mexico MPS 26803
2001 02 16.26315 08 30 57.01 +35 12 21.3 18.8   704 – Lincoln Laboratory ETS, New Mexico MPS 26803
2001 02 16.28506 08 30 56.28 +35 12 19.0 18.2   704 – Lincoln Laboratory ETS, New Mexico MPS 26803
2001 02 16.30025 08 30 55.74 +35 12 18.2 18.3   704 – Lincoln Laboratory ETS, New Mexico MPS 26803
2001 03 18.15190 08 18 46.37 +33 55 17.3 18.4 R 699 – Lowell Observatory-LONEOS MPS 27333
2001 03 18.16292 08 18 46.36 +33 55 15.0   699 – Lowell Observatory-LONEOS MPS 27333
2001 03 18.17386 08 18 46.11 +33 55 12.8   699 – Lowell Observatory-LONEOS MPS 27333
2001 03 18.18477 08 18 45.95 +33 55 10.1   699 – Lowell Observatory-LONEOS MPS 27333
2002 01 18.46975 11 02 51.78 +11 12 15.6 18.9   704 – Lincoln Laboratory ETS, New Mexico MPS 48413
2002 01 18.48503 11 02 51.49 +11 12 15.4 19.1   704 – Lincoln Laboratory ETS, New Mexico MPS 48413
2002 01 18.50030 11 02 51.16 +11 12 14.8 19.7   704 – Lincoln Laboratory ETS, New Mexico MPS 48413
2002 01 18.51559 11 02 50.91 +11 12 15.8 19.0   704 – Lincoln Laboratory ETS, New Mexico MPS 48413
2002 01 18.53086 11 02 50.60 +11 12 16.2 19.0   704 – Lincoln Laboratory ETS, New Mexico MPS 48413
2002 01 21.34106 11 01 57.88 +11 13 30.8 19.5   704 – Lincoln Laboratory ETS, New Mexico MPS 48413
2002 01 21.35605 11 01 57.56 +11 13 31.1 19.5   704 – Lincoln Laboratory ETS, New Mexico MPS 48413
2002 01 21.37135 11 01 57.22 +11 13 31.9 18.9   704 – Lincoln Laboratory ETS, New Mexico MPS 48413
2002 01 22.49628 11 01 34.40 +11 14 08.8 19.0   644 – Palomar Mountain/NEAT MPS 48413
2002 01 22.50627 11 01 34.21 +11 14 09.1 18.9   644 – Palomar Mountain/NEAT MPS 48413
2002 01 22.51671 11 01 33.99 +11 14 09.3 19.0   644 – Palomar Mountain/NEAT MPS 48413
2002 02 06.31093 10 55 16.81 +11 26 57.1 19.1 V 333 – Desert Eagle Observatory MPS 48413
2002 02 06.33373 10 55 16.17 +11 26 59.2 19.0 V 333 – Desert Eagle Observatory MPS 48413
